Content
SEND FEEDBACK

Daily
Averages
Monthly
Summary
United States of America

ST. LOUIS - SAINT LOUIS UNIVERSITY, MISSOURI


Home > North America > United States > Missouri
Elevation: 177 meters     Latitude: 38 38N     Longitude: 090 14W

WEATHER
 
SELECT A DAY
Number of Records: 186,236;   Date Range: 1/1/95 - 8/28/14
 
SHARE

PRINT THIS DATA

[ ← Previous Day ]
WEATHER ALMANAC - 8 APRIL, 2013
[ Next Day → ]
[ °F ]   °C
Weather ElementAverageHighLow
Temperature20.8 °C24.4 °C (12:53 pm)15 °C (6:53 am)
Dewpoint12.7 °C13.9 °C (11:53 am)10.6 °C (6:53 am)
Humidity60.3 %75 % (6:53 am)50 % (3:53 pm)
Barometer1009.1 hPa1011.9 hPa (11:53 pm)1006.8 hPa (5:53 am)
Wind Speed16.1 km/h25.9 km/h (3:53 pm)
Wind Gust40.7 km/h (3:53 pm)
Weather ElementAverage
Visibility15.6 km
Wind DirectionS (175.4 °)

Weather ElementTotal
Precipitation---
Cooling Degree Days1.4 (Base 18.3)
Growing Degree Days9.7 (Base 10)
Averaged from 24 records on 8 April, 2013
WEATHER CONDITIONS BREAKOUT
WIND DIRECTION BREAKOUT
WEATHER BY HOUR - 8 APRIL, 2013
[ °F ]   °C
Local TimeTemperatureDewpointHumidityBarometerVisibilityWind DirectionWind SpeedGust SpeedPrecipitationEventsConditions
1:53 AM17.8 °C12.2 °C70 %1008.8 hPa16.1 kmSSW (200°)18.5 km/h33.3 km/hClear
2:53 AM17.2 °C11.7 °C70 %1008.1 hPa16.1 kmSouth (180°)16.7 km/hClear
3:53 AM17.2 °C11.1 °C67 %1007.1 hPa16.1 kmSouth (180°)24.1 km/h38.9 km/hOvercast
4:53 AM16.7 °C11.1 °C70 %1007.5 hPa16.1 kmSouth (190°)16.7 km/hPartly Cloudy
5:53 AM16.1 °C11.1 °C72 %1006.8 hPa16.1 kmSouth (170°)16.7 km/hClear
6:53 AM15 °C10.6 °C75 %1007.8 hPa16.1 kmSE (140°)7.4 km/hClear
7:53 AM17.8 °C11.7 °C67 %1008.1 hPa16.1 kmSouth (180°)11.1 km/hClear
8:53 AM18.9 °C12.2 °C65 %1008.5 hPa16.1 kmSSW (200°)13 km/hClear
9:53 AM19.4 °C12.2 °C63 %1009.5 hPa16.1 kmSW (220°)13 km/hClear
10:53 AM21.7 °C13.3 °C59 %1009.8 hPa16.1 kmSSW (210°)14.8 km/h27.8 km/hClear
11:53 AM23.3 °C13.9 °C55 %1009.5 hPa16.1 kmSW (220°)13 km/hClear
12:53 PM24.4 °C13.9 °C52 %1009.1 hPa16.1 kmSE (130°)7.4 km/hClear
1:53 PM24.4 °C13.9 °C52 %1008.8 hPa16.1 kmSouth (170°)16.7 km/h27.8 km/hMostly Cloudy
2:53 PM23.9 °C13.9 °C53 %1008.8 hPa16.1 kmSSE (160°)22.2 km/h38.9 km/hScattered Clouds
3:53 PM24.4 °C13.3 °C50 %1008.5 hPa16.1 kmSouth (170°)25.9 km/h40.7 km/hClear
4:33 PM24 °C13 °C50 %1008.8 hPa8 kmSouth (170°)22.2 km/h33.3 km/hHaze
4:53 PM24.4 °C13.3 °C50 %1008.5 hPa12.9 kmSouth (190°)24.1 km/h38.9 km/hPartly Cloudy
5:53 PM23.9 °C13.3 °C51 %1008.8 hPa16.1 kmSSE (160°)18.5 km/hClear
6:53 PM23.3 °C13.3 °C53 %1009.5 hPa16.1 kmSSE (160°)13 km/hPartly Cloudy
7:53 PM21.7 °C12.8 °C57 %1009.5 hPa16.1 kmSSE (160°)9.3 km/hClear
8:53 PM21.1 °C13.3 °C61 %1010.5 hPa16.1 kmSSE (150°)16.7 km/hOvercast
9:53 PM21.1 °C13.3 °C61 %1011.5 hPa16.1 kmSouth (170°)18.5 km/h29.6 km/hOvercast
10:53 PM21.1 °C13.3 °C61 %1011.5 hPa16.1 kmSouth (170°)16.7 km/hOvercast
11:53 PM20.6 °C13.3 °C63 %1011.9 hPa16.1 kmSSE (160°)9.3 km/hOvercast
Hourly data recorded from KCPS, located 0 kilometers away from St. Louis - Saint Louis University, Missouri







STORIES FROM OUR PARTNERS